Regional Weather Roundup
Issued by NWS

Home | Current Version | Previous Version | Graphics & Text | Print | Product List | Glossary Off
Versions: 1 2 3 4 5 6 7 8 9 10 11 12 13 14 15 16 17 18 19 20 21 22 23 24 25 26 27 28 29 30 31 32 33 34 35 36 37 38 39 40 41 42 43 44 45 46 47 48 49 50

000
ASUS43 KMKX 290011
RWRWI

WISCONSIN REGIONAL WEATHER ROUNDUP
NATIONAL WEATHER SERVICE MILWAUKEE/SULLIVAN WI
700 PM CDT TUE JUL 28 2015

NOTE: "FAIR" INDICATES FEW OR NO CLOUDS BELOW 12,000 FEET WITH NO
SIGNIFICANT WEATHER AND/OR OBSTRUCTIONS TO VISIBILITY.

WIZ001-002-006>008-014>016-023>028-290100-
NORTHWEST WISCONSIN

CITY           SKY/WX    TMP DP  RH WIND       PRES   REMARKS
SUPERIOR ARPT  CLOUDY    82  70  68 S9        29.75F HX  85
6HR MIN TEMP:  82; 6HR MAX TEMP:  86;

ASHLAND        MOSUNNY   81  70  69 SW7       29.79S HX  84
6HR MIN TEMP:  81; 6HR MAX TEMP:  87;

HAYWARD        CLOUDY    81  69  67 S7        29.83S HX  84
6HR MIN TEMP:  81; 6HR MAX TEMP:  85;

SIREN          CLOUDY    80  69  68 S8        29.81F HX  83
6HR MIN TEMP:  80; 6HR MAX TEMP:  83;

CUMBERLAND     CLOUDY    77  70  78 S5        29.84F
RICE LAKE      CLOUDY    79  72  77 CALM      29.85F HX  83
6HR MIN TEMP:  78; 6HR MAX TEMP:  82;

CHETEK         CLOUDY    80  74  81 SE5       29.84S HX  85
LADYSMITH      CLOUDY    81  71  71 S6        29.87S HX  84
6HR MIN TEMP:  79; 6HR MAX TEMP:  84;

EAU CLAIRE     PTSUNNY   83  72  69 S9        29.82F HX  88
6HR MIN TEMP:  78; 6HR MAX TEMP:  86;

MENOMONIE      CLOUDY    82  74  74 S6        29.83S HX  88
6HR MIN TEMP:  78; 6HR MAX TEMP:  86;

NEW RICHMOND   CLOUDY    81  71  72 SW6       29.83S HX  84
6HR MIN TEMP:  79; 6HR MAX TEMP:  84;

OSCEOLA        CLOUDY    80  73  77 SE5       29.84S HX  84
6HR MIN TEMP:  79; 6HR MAX TEMP:  84;

$$

WIZ003>005-009-010-017-018-290100-
NORTH CENTRAL WISCONSIN

CITY           SKY/WX    TMP DP  RH WIND       PRES   REMARKS
MANITOWISH WTR SUNNY     78  69  73 S8        29.87S
6HR MIN TEMP:  74; 6HR MAX TEMP:  82;

ARBOR VITAE    SUNNY     80  68  68 S8        29.88S HX  82
6HR MIN TEMP:  77; 6HR MAX TEMP:  82;

WOODRUFF       SUNNY     80  68  68 S8        29.88S HX  82
6HR MIN TEMP:  77; 6HR MAX TEMP:  82;

RHINELANDER    MOSUNNY   80  67  64 S8        29.90F HX  82
6HR MIN TEMP:  77; 6HR MAX TEMP:  82;

EAGLE RIVER    MOSUNNY   79  64  58 S8        29.89F HX  81
6HR MIN TEMP:  75; 6HR MAX TEMP:  81;

LAND O LAKES   SUNNY     81  64  57 S6        29.90F HX  82
6HR MIN TEMP:  76; 6HR MAX TEMP:  83;

PHILLIPS       CLOUDY    79  70  73 S7        29.87R HX  81
6HR MIN TEMP:  77; 6HR MAX TEMP:  82;

TOMAHAWK       MOSUNNY   79  67  67 S5        29.89S HX  82
6HR MIN TEMP:  78; 6HR MAX TEMP:  82;

MEDFORD        PTSUNNY   77  70  79 S10       29.90R
6HR MIN TEMP:  76; 6HR MAX TEMP:  80;

MERRILL        NOT AVBL
$$

WIZ029-030-035-036-043>047-290100-
CENTRAL WISCONSIN

CITY           SKY/WX    TMP DP  RH WIND       PRES   REMARKS
WAUSAU         MOSUNNY   82  68  62 S16       29.87F HX  85
6HR MIN TEMP:  80; 6HR MAX TEMP:  85;

MOSINEE        MOSUNNY   79  72  78 S9        29.90F HX  82
MARSHFIELD     MOSUNNY   80  69  69 S7        29.89S HX  83
6HR MIN TEMP:  78; 6HR MAX TEMP:  83;

STEVENS POINT  CLOUDY    81  69  67 S10       29.89S HX  84
6HR MIN TEMP:  77; 6HR MAX TEMP:  83;

WAUPACA        MOSUNNY   84  71  63 S7        29.89F HX  89
6HR MIN TEMP:  84; 6HR MAX TEMP:  88;

WAUTOMA        MOSUNNY   85  72  65 S9        29.89S HX  91
6HR MIN TEMP:  84; 6HR MAX TEMP:  87;

WISC RAPIDS    MOSUNNY   83  70  64 SW12      29.89F HX  87
6HR MIN TEMP:  77; 6HR MAX TEMP:  85;

CAMP DOUGLAS   PTSUNNY   81  77  89 SW8       29.89F HX  88
$$

WIZ011>013-019>022-031-037>040-048>050-290100-
NORTHEAST WISCONSIN

CITY           SKY/WX    TMP DP  RH WIND       PRES   REMARKS
ANTIGO         PTSUNNY   79  69  70 S13       29.92S HX  81
SHAWANO        MOSUNNY   85  67  54 S3        29.89S HX  87
6HR MIN TEMP:  82; 6HR MAX TEMP:  88;

OCONTO         PTSUNNY   80  67  65 S9        29.89F HX  82
6HR MIN TEMP:  80; 6HR MAX TEMP:  87;

STURGEON BAY   PTSUNNY   77  63  61 S12       29.94S
6HR MIN TEMP:  77; 6HR MAX TEMP:  84;

GREEN BAY      MOSUNNY   82  65  56 S14       29.90F HX  84
6HR MIN TEMP:  82; 6HR MAX TEMP:  88;

MANITOWOC      PTSUNNY   78  66  66 MISG      29.93S HX  80
6HR MIN TEMP:  77; 6HR MAX TEMP:  81;

APPLETON       PTSUNNY   81  63  54 S13       29.91F HX  82
CLINTONVILLE   MOSUNNY   82  66  57 S8        29.88F HX  85
OSHKOSH        MOSUNNY   81  67  62 S8        29.89F HX  83
6HR MIN TEMP:  81; 6HR MAX TEMP:  88;

$$

WIZ032>034-041-042-053>061-290100-
SOUTHWEST WISCONSIN

CITY           SKY/WX    TMP DP  RH WIND       PRES   REMARKS
LA CROSSE      CLOUDY    84  73  69 S9        29.85F HX  90
6HR MIN TEMP:  75; 6HR MAX TEMP:  86;

SPARTA         PTSUNNY   81  69  67 S7        29.88F HX  84
6HR MIN TEMP:  73; 6HR MAX TEMP:  84;

VIROQUA        PTSUNNY   78  72  81 S5        29.91S HX  81
6HR MIN TEMP:  71; 6HR MAX TEMP:  82;

BOSCOBEL       CLOUDY    80  73  79 CALM      29.88F HX  84
6HR MIN TEMP:  75; 6HR MAX TEMP:  84; 6HR PCP:  0.01;

PRAIRIE DU CHI CLOUDY    78  69  73 CALM      29.90R HX  80
6HR MIN TEMP:  73; 6HR MAX TEMP:  83;

PLATTEVILLE    CLOUDY    79  74  85 SW3       29.92R HX  83
6HR MIN TEMP:  75; 6HR MAX TEMP:  82; 6HR PCP:  0.03;

$$

WIZ056-057-062-063-064-067-068-290100-
SOUTH CENTRAL WISCONSIN

CITY           SKY/WX    TMP DP  RH WIND       PRES   REMARKS
REEDSBURG      MOSUNNY   80  72  76 SW6       29.89F HX  83
6HR MIN TEMP:  77; 6HR MAX TEMP:  85;

BARABOO/DELLS  MOSUNNY   80  69  69 SW5       29.90F HX  83
6HR MIN TEMP:  78; 6HR MAX TEMP:  85;

LONE ROCK      PTSUNNY   81  72  74 CALM      29.89F HX  85
6HR MIN TEMP:  77; 6HR MAX TEMP:  84; 6HR PCP: TRACE;

MINERAL POINT  PTSUNNY   81  73  78 CALM      29.92S HX  85
MADISON        PTSUNNY   84  70  62 SW8       29.90F HX  88
6HR MIN TEMP:  83; 6HR MAX TEMP:  86;

MIDDLETON      SUNNY    N/A N/A N/A SW5       29.91F
WATERTOWN      MOSUNNY   83  76  77 S8        29.90F HX  91
6HR MIN TEMP:  83; 6HR MAX TEMP:  86;

MONROE         PTSUNNY   79  72  78 S5        29.92F HX  82
JANESVILLE     PTSUNNY   84  73  70 SW5       29.91S HX  91
$$

WIZ051-052-058>065-066-070>072-290100-
SOUTHEAST WISCONSIN

CITY           SKY/WX    TMP DP  RH WIND       PRES   REMARKS
MILWAUKEE      PTSUNNY   82  68  62 S9        29.92R HX  85
6HR MIN TEMP:  79; 6HR MAX TEMP:  86;

WAUKESHA       MOSUNNY   81  68  65 S6        29.94S HX  83
MILWAUKEE/TIMM SUNNY     82  64  54 S6        29.93R HX  84
RACINE         MOSUNNY   81  67  62 S5        29.94R HX  83
6HR MIN TEMP:  80; 6HR MAX TEMP:  84;

BURLINGTON     PTSUNNY   81  70  69 CALM      29.92S HX  84
6HR MIN TEMP:  81; 6HR MAX TEMP:  86;

KENOSHA        PTSUNNY   83  70  64 S7        29.92S HX  87
6HR MIN TEMP:  82; 6HR MAX TEMP:  87;

FOND DU LAC    MOSUNNY   82  68  62 SE12      29.90F HX  85
6HR MIN TEMP:  82; 6HR MAX TEMP:  87;

SHEBOYGAN      CLOUDY    79  67  66 SE6       29.93S HX  81
6HR MIN TEMP:  77; 6HR MAX TEMP:  84;

WEST BEND      PTSUNNY   81  66  61 CALM      29.92F HX  83
JUNEAU         PTSUNNY   83  74  73 S8        29.92F HX  89
6HR MIN TEMP:  82; 6HR MAX TEMP:  84;

$$

LSZ147-162-290100-
LAKE SUPERIOR

STATION/POSITION TIME  TEMP    WIND        PRES    WAVE
                       AIR SEA DIR/SP/G            HT/PER
                 (UTC) (F)     (DEG/KT/KT) (MB)    (FT/S)
W MID LAKE BUOY  2350   68 62  150/ 10/ 10 1007.9F   1/ 3
DEVILS ISLAND    0000   78      90/  4/  5 1007.4F
SAXON HARBOR     2340   86                 1008.1F
$$

LMZ867-665-643>646-290100-
LAKE MICHIGAN

STATION/POSITION TIME  TEMP    WIND        PRES    WAVE
                       AIR SEA DIR/SP/G            HT/PER
                 (UTC) (F)     (DEG/KT/KT) (MB)    (FT/S)
CHAMBERS ISLAND  2300   80     140/  4/ 11 1012.2F
S GREEN BAY BUOY 0000   79 76  170/ 16/ 17 1014.1S
N MID LAKE BUOY  2350   72 71  170/  6/  6 1012.7S   0
NORTHPORT PIER   2300   75     150/  7/  9 1012.9S


USA.gov is the U.S. government's official web portal to all federal, state and local government web resources and services.